Location: Miles
(41.4492°N, 81.6087°W)
Time: 16:25:29
(UTC+00:00)

A-11 Canister half - Pass Details

Date: 22 September 2024
Orbit: 1515 x 1685 km, 47.2° (Epoch: 14 October)

Event Time Altitude Azimuth Distance (km) Brightness Sun altitude
Rises 00:05:00 0° 263° (W) 4,752 13.4 -8.4°
Reaches altitude 10° 00:08:09 10° 266° (W) 3,747 12.6 -9.0°
Maximum altitude 00:17:32 66° 349° (NNW) 1,649 9.3 -10.8°
Drops below altitude 10° 00:26:45 10° 71° (ENE) 3,677 10.5 -12.5°
Enters shadow 00:27:00 - 71° (ENE) 3,758 10.5 -12.5°
